FALCON 9 R/B (44480 NORAD) Tracking and Keplerian Element Data

This shows tracking and keplerian element data for the satellite.

Feedback or suggestion? Click here.




ElementValue
Catalog44480
NameFALCON 9 R/B
Epoch Orbit63
Epoch Day246.6860183
Epoch Year2019
RAAN128.7315
Inclination26.1214
Eccentricity0.728439
Argument of Perigee194.8123
Mean Anonmoly119.1854
Mean Motion2.28838318
Decay Rate5.094E-05
L11 44480U 19050B 19246.68601830 .00005094 00000-0 90928-3 0 9998
L22 44480 26.1214 128.7315 7284390 194.8123 119.1854 2.28838318 637

Live tracking and technical data element details for FALCON 9 R/B (NORAD 44480). FALCON 9 R/B can be tracked NOW for your location showing map with azimuth and elevation plus other details from your city location.

Track the satellite on the map from your city or location and see movement details for azimuth, elevation, latitude, longitude, range, height, and movement on the map or in text.







IsCatalogInMostPopularTable: catalog: 44480, numindb: 18
Update: records affected: 1



GetName: 44480 FALCON 9 R/B

Hit Count: updated at: Wed, 23 Oct 2019 00:32:30 GMT